AAL2691 TFFF-KMIA

Flight info

Callsign AAL2691
Flight time 3h 25m
Altitude 24000
Route EMOLA2R EMOLA A555 DUNTA/N0464F360 UA555 ILURI Y185 ACONY Y280 CHASO DCT BRRGO BR55V ZQA VIICE2
Aircraft A319/M-SDE3FGHIRWY/LB1

Departure

Time 2026-04-30 10:45
Airport Martinique Aimé Césaire International Airport (TFFF)

Arrival

Time 2026-04-30 14:11
Airport Miami International Airport (KMIA)
Time Latitude Longitude Altitude Speed Heading
2026-04-30 10:08 14.59584 -61.00202 -8 ft 0 kts 62°
2026-04-30 10:30 14.59578 -61.00214 18 ft 3 kts 62°
2026-04-30 10:30 14.59567 -61.00237 18 ft 4 kts 65°
2026-04-30 10:30 14.59558 -61.00260 19 ft 3 kts 71°
2026-04-30 10:31 14.59552 -61.00284 21 ft 3 kts 99°
2026-04-30 10:31 14.59558 -61.00298 18 ft 0 kts 152°
2026-04-30 10:37 14.59557 -61.00297 18 ft 1 kts 153°
2026-04-30 10:38 14.59543 -61.00290 20 ft 3 kts 152°
2026-04-30 10:38 14.59518 -61.00274 21 ft 5 kts 146°
2026-04-30 10:38 14.59480 -61.00244 19 ft 8 kts 139°
2026-04-30 10:38 14.59430 -61.00191 18 ft 12 kts 130°
2026-04-30 10:39 14.59384 -61.00107 19 ft 15 kts 114°
2026-04-30 10:39 14.59340 -61.00047 19 ft 10 kts 169°
2026-04-30 10:39 14.59276 -61.00036 20 ft 9 kts 170°
2026-04-30 10:39 14.59215 -61.00025 20 ft 9 kts 170°
2026-04-30 10:40 14.59154 -61.00041 18 ft 10 kts 239°
2026-04-30 10:40 14.59140 -61.00120 17 ft 13 kts 259°
2026-04-30 10:40 14.59122 -61.00224 16 ft 16 kts 260°
2026-04-30 10:40 14.59101 -61.00348 16 ft 19 kts 259°
2026-04-30 10:41 14.59076 -61.00495 18 ft 22 kts 260°
2026-04-30 10:41 14.59050 -61.00659 18 ft 24 kts 261°
2026-04-30 10:41 14.59019 -61.00827 22 ft 24 kts 259°
2026-04-30 10:41 14.58988 -61.01010 24 ft 27 kts 260°
2026-04-30 10:42 14.58956 -61.01195 25 ft 25 kts 260°
2026-04-30 10:42 14.58927 -61.01373 23 ft 25 kts 260°
2026-04-30 10:42 14.58895 -61.01555 21 ft 26 kts 260°
2026-04-30 10:42 14.58870 -61.01705 18 ft 12 kts 260°
2026-04-30 10:43 14.58896 -61.01783 17 ft 12 kts 307°
2026-04-30 10:43 14.58881 -61.01831 16 ft 9 kts 192°
2026-04-30 10:43 14.58855 -61.01793 16 ft 6 kts 81°
2026-04-30 10:43 14.58856 -61.01788 16 ft 0 kts 81°
2026-04-30 10:44 14.58880 -61.01644 19 ft 54 kts 80°
2026-04-30 10:44 14.58983 -61.01046 23 ft 113 kts 80°
2026-04-30 10:45 14.59150 -61.00065 27 ft 161 kts 80°
2026-04-30 10:45 14.59339 -60.98941 595 ft 156 kts 80°
2026-04-30 10:45 14.59533 -60.97843 1159 ft 155 kts 79°
2026-04-30 10:45 14.59733 -60.96754 1753 ft 154 kts 79°
2026-04-30 10:46 14.59935 -60.95597 2011 ft 175 kts 82°
2026-04-30 10:46 14.60155 -60.94291 2292 ft 195 kts 81°
2026-04-30 10:46 14.60398 -60.92839 2598 ft 216 kts 81°
2026-04-30 10:46 14.60664 -60.91244 2984 ft 234 kts 81°
2026-04-30 10:47 14.61061 -60.89543 3449 ft 252 kts 65°
2026-04-30 10:47 14.62277 -60.88218 4129 ft 265 kts 30°
2026-04-30 10:47 14.64097 -60.87848 4894 ft 276 kts 357°
2026-04-30 10:47 14.65987 -60.88286 5689 ft 281 kts 343°
2026-04-30 10:48 14.67832 -60.88984 6495 ft 284 kts 341°
2026-04-30 10:48 14.69705 -60.89698 7094 ft 287 kts 342°
2026-04-30 10:48 14.71611 -60.90337 7832 ft 289 kts 345°
2026-04-30 10:48 14.73560 -60.90895 8536 ft 292 kts 348°
2026-04-30 10:49 14.75547 -60.91390 9237 ft 295 kts 349°
2026-04-30 10:49 14.77564 -60.91844 9914 ft 298 kts 350°
2026-04-30 10:49 14.79631 -60.92283 10291 ft 313 kts 351°
2026-04-30 10:49 14.81843 -60.92741 10413 ft 335 kts 351°
2026-04-30 10:50 14.84190 -60.93227 10622 ft 351 kts 350°
2026-04-30 10:50 14.86609 -60.93735 11097 ft 358 kts 350°
2026-04-30 10:50 14.89047 -60.94311 11637 ft 362 kts 343°
2026-04-30 10:50 14.91345 -60.95410 12189 ft 367 kts 328°
2026-04-30 10:51 14.93320 -60.97097 12766 ft 371 kts 313°
2026-04-30 10:51 14.94832 -60.99263 13334 ft 374 kts 298°
2026-04-30 10:51 14.95785 -61.01765 13911 ft 376 kts 286°
2026-04-30 10:51 14.96524 -61.04368 14433 ft 377 kts 286°
2026-04-30 10:52 14.97261 -61.06973 14953 ft 379 kts 286°
2026-04-30 10:52 14.98004 -61.09603 15464 ft 381 kts 285°
2026-04-30 10:52 14.98750 -61.12242 15953 ft 384 kts 285°
2026-04-30 10:52 14.99500 -61.14897 16451 ft 386 kts 285°
2026-04-30 10:53 15.00259 -61.17570 16951 ft 388 kts 285°
2026-04-30 10:53 15.01019 -61.20253 17445 ft 390 kts 285°
2026-04-30 10:53 15.01785 -61.22956 17941 ft 392 kts 285°
2026-04-30 10:53 15.02553 -61.25671 18396 ft 394 kts 285°
2026-04-30 10:54 15.03324 -61.28400 18828 ft 396 kts 285°
2026-04-30 10:54 15.04097 -61.31143 19243 ft 398 kts 285°
2026-04-30 10:54 15.04873 -61.33898 19663 ft 400 kts 285°
2026-04-30 10:54 15.05655 -61.36667 20111 ft 401 kts 285°
2026-04-30 10:55 15.06434 -61.39424 20695 ft 398 kts 284°
2026-04-30 10:55 15.07207 -61.42168 21231 ft 397 kts 284°
2026-04-30 10:55 15.07983 -61.44920 21683 ft 399 kts 284°
2026-04-30 10:55 15.08768 -61.47711 22128 ft 401 kts 284°
2026-04-30 10:56 15.09542 -61.50451 22552 ft 402 kts 284°
2026-04-30 10:56 15.10325 -61.53236 22945 ft 404 kts 284°
2026-04-30 10:56 15.11123 -61.56073 23355 ft 406 kts 284°
2026-04-30 10:56 15.11903 -61.58848 23707 ft 408 kts 284°
2026-04-30 10:57 15.12706 -61.61675 24032 ft 410 kts 286°
2026-04-30 10:57 15.13836 -61.64389 24358 ft 414 kts 297°
2026-04-30 10:57 15.15463 -61.66868 24684 ft 419 kts 308°
2026-04-30 10:57 15.17412 -61.69118 25010 ft 421 kts 309°
2026-04-30 10:58 15.19378 -61.71364 25335 ft 422 kts 309°
2026-04-30 10:58 15.21349 -61.73625 25661 ft 423 kts 309°
2026-04-30 10:58 15.23320 -61.75890 25983 ft 424 kts 309°
2026-04-30 10:58 15.25295 -61.78163 26297 ft 425 kts 309°
2026-04-30 10:59 15.27275 -61.80444 26602 ft 427 kts 309°
2026-04-30 10:59 15.29258 -61.82736 26904 ft 428 kts 308°
2026-04-30 10:59 15.31247 -61.85035 27203 ft 429 kts 308°
2026-04-30 10:59 15.33241 -61.87339 27504 ft 430 kts 308°
2026-04-30 11:00 15.35252 -61.89666 27659 ft 435 kts 308°
2026-04-30 11:00 15.37278 -61.92007 27848 ft 439 kts 308°
2026-04-30 11:00 15.39323 -61.94367 28098 ft 441 kts 308°
2026-04-30 11:00 15.41382 -61.96738 28355 ft 443 kts 308°
2026-04-30 11:01 15.43444 -61.99115 28611 ft 444 kts 308°
2026-04-30 11:01 15.45508 -62.01501 28873 ft 445 kts 308°
2026-04-30 11:01 15.47577 -62.03897 29128 ft 447 kts 308°
2026-04-30 11:01 15.49651 -62.06300 29375 ft 448 kts 308°
2026-04-30 11:02 15.51733 -62.08710 29620 ft 449 kts 308°
2026-04-30 11:02 15.53821 -62.11126 29862 ft 451 kts 308°
2026-04-30 11:02 15.55916 -62.13548 30093 ft 452 kts 308°
2026-04-30 11:02 15.58016 -62.15977 30305 ft 453 kts 308°
2026-04-30 11:03 15.60121 -62.18410 30522 ft 453 kts 308°
2026-04-30 11:03 15.62230 -62.20852 30753 ft 454 kts 308°
2026-04-30 11:03 15.64328 -62.23285 31083 ft 451 kts 308°
2026-04-30 11:04 15.68490 -62.28115 31764 ft 447 kts 308°
2026-04-30 11:04 15.70554 -62.30511 32109 ft 444 kts 308°
2026-04-30 11:04 15.72607 -62.32894 32458 ft 442 kts 308°
2026-04-30 11:04 15.74650 -62.35269 32833 ft 439 kts 308°
2026-04-30 11:05 15.76678 -62.37626 33198 ft 436 kts 309°
2026-04-30 11:05 15.78018 -62.39181 33448 ft 435 kts 309°
2026-04-30 11:05 15.80026 -62.41514 33818 ft 432 kts 309°
2026-04-30 11:05 15.82021 -62.43834 34157 ft 430 kts 309°
2026-04-30 11:06 15.84006 -62.46140 34480 ft 427 kts 308°
2026-04-30 11:06 15.85979 -62.48435 34779 ft 425 kts 308°
2026-04-30 11:06 15.87940 -62.50720 35068 ft 423 kts 308°
2026-04-30 11:06 15.89892 -62.52994 35341 ft 421 kts 308°
2026-04-30 11:07 15.91840 -62.55262 35608 ft 419 kts 308°
2026-04-30 11:07 15.93775 -62.57519 35860 ft 418 kts 308°
2026-04-30 11:07 15.95703 -62.59772 35965 ft 416 kts 308°
2026-04-30 11:08 15.99565 -62.64280 35990 ft 414 kts 308°
2026-04-30 11:08 16.03391 -62.68744 35989 ft 413 kts 308°
2026-04-30 11:09 16.07189 -62.73177 35985 ft 413 kts 308°
2026-04-30 11:09 16.11007 -62.77632 35987 ft 412 kts 308°
2026-04-30 11:10 16.14817 -62.82090 35989 ft 412 kts 308°
2026-04-30 11:10 16.18653 -62.86580 35995 ft 412 kts 308°
2026-04-30 11:11 16.22442 -62.91014 36001 ft 412 kts 308°
2026-04-30 11:11 16.26257 -62.95476 36002 ft 412 kts 308°
2026-04-30 11:12 16.30060 -62.99935 36005 ft 412 kts 307°
2026-04-30 11:12 16.33730 -63.04502 36004 ft 410 kts 305°
2026-04-30 11:13 16.37268 -63.09163 36004 ft 410 kts 304°
2026-04-30 11:13 16.40804 -63.13814 36004 ft 410 kts 304°
2026-04-30 11:14 16.44368 -63.18441 36007 ft 409 kts 305°
2026-04-30 11:14 16.47948 -63.23058 36007 ft 409 kts 305°
2026-04-30 11:15 16.51518 -63.27677 36007 ft 409 kts 304°
2026-04-30 11:15 16.55073 -63.32285 36006 ft 408 kts 304°
2026-04-30 11:16 16.58630 -63.36902 36006 ft 408 kts 304°
2026-04-30 11:16 16.62157 -63.41485 36006 ft 407 kts 304°
2026-04-30 11:17 16.65700 -63.46093 36009 ft 407 kts 304°
2026-04-30 11:17 16.69242 -63.50696 36009 ft 407 kts 304°
2026-04-30 11:18 16.72781 -63.55298 36013 ft 406 kts 304°
2026-04-30 11:18 16.78080 -63.62194 36009 ft 406 kts 304°
2026-04-30 11:19 16.81607 -63.66788 36009 ft 405 kts 304°
2026-04-30 11:19 16.85142 -63.71384 36005 ft 405 kts 304°
2026-04-30 11:20 16.88667 -63.75970 36009 ft 405 kts 304°
2026-04-30 11:20 16.92183 -63.80564 36008 ft 404 kts 304°
2026-04-30 11:21 16.95690 -63.85154 36008 ft 404 kts 304°
2026-04-30 11:21 16.99196 -63.89740 36005 ft 404 kts 304°
2026-04-30 11:22 17.02707 -63.94326 36000 ft 404 kts 304°
2026-04-30 11:22 17.06209 -63.98906 36003 ft 403 kts 304°
2026-04-30 11:23 17.09705 -64.03486 35997 ft 403 kts 304°
2026-04-30 11:24 17.14942 -64.10358 36003 ft 403 kts 303°
2026-04-30 11:24 17.18435 -64.14939 36004 ft 402 kts 303°
2026-04-30 11:25 17.23658 -64.21814 36010 ft 402 kts 303°
2026-04-30 11:26 17.30603 -64.30934 35998 ft 402 kts 303°
2026-04-30 11:26 17.34080 -64.35502 35997 ft 401 kts 303°
2026-04-30 11:27 17.37559 -64.40073 35995 ft 401 kts 303°
2026-04-30 11:27 17.41032 -64.44648 35992 ft 401 kts 303°
2026-04-30 11:28 17.46227 -64.51517 35995 ft 401 kts 303°
2026-04-30 11:29 17.49683 -64.56091 35999 ft 401 kts 303°
2026-04-30 11:29 17.54886 -64.62948 35998 ft 400 kts 303°
2026-04-30 11:30 17.60076 -64.69809 36003 ft 401 kts 303°
2026-04-30 11:31 17.63536 -64.74395 36005 ft 401 kts 303°
2026-04-30 11:31 17.66997 -64.78981 36007 ft 401 kts 303°
2026-04-30 11:32 17.70467 -64.83570 36010 ft 401 kts 303°
2026-04-30 11:32 17.73930 -64.88161 36010 ft 401 kts 303°
2026-04-30 11:33 17.79123 -64.95054 36008 ft 402 kts 303°
2026-04-30 11:33 17.82584 -64.99654 36011 ft 398 kts 302°
2026-04-30 11:34 17.85972 -65.04153 35995 ft 390 kts 302°
2026-04-30 11:34 17.89328 -65.08618 35993 ft 389 kts 302°
2026-04-30 11:35 17.92679 -65.13078 35992 ft 389 kts 302°
2026-04-30 11:35 17.96031 -65.17545 35992 ft 389 kts 302°
2026-04-30 11:36 17.99373 -65.22012 35994 ft 389 kts 302°
2026-04-30 11:36 18.02719 -65.26480 35993 ft 389 kts 302°
2026-04-30 11:37 18.06067 -65.30946 35991 ft 389 kts 302°
2026-04-30 11:37 18.09416 -65.35418 35992 ft 389 kts 302°
2026-04-30 11:38 18.12761 -65.39882 35994 ft 389 kts 302°
2026-04-30 11:38 18.16101 -65.44355 35992 ft 389 kts 302°
2026-04-30 11:39 18.19440 -65.48832 35989 ft 389 kts 301°
2026-04-30 11:39 18.22774 -65.53305 35990 ft 388 kts 301°
2026-04-30 11:40 18.26105 -65.57772 35987 ft 388 kts 301°
2026-04-30 11:40 18.29443 -65.62248 35989 ft 388 kts 301°
2026-04-30 11:41 18.32778 -65.66711 35989 ft 388 kts 301°
2026-04-30 11:41 18.36109 -65.71179 35989 ft 388 kts 301°
2026-04-30 11:42 18.39436 -65.75656 35993 ft 388 kts 301°
2026-04-30 11:42 18.42735 -65.80094 35996 ft 387 kts 301°
2026-04-30 11:43 18.46076 -65.84589 35998 ft 387 kts 301°
2026-04-30 11:43 18.49389 -65.89054 36003 ft 387 kts 301°
2026-04-30 11:44 18.52703 -65.93523 36000 ft 387 kts 301°
2026-04-30 11:44 18.56012 -65.97987 36001 ft 386 kts 301°
2026-04-30 11:45 18.59320 -66.02455 36000 ft 386 kts 301°
2026-04-30 11:45 18.62625 -66.06918 35998 ft 386 kts 301°
2026-04-30 11:46 18.65907 -66.11349 35996 ft 386 kts 301°
2026-04-30 11:46 18.69206 -66.15815 35994 ft 386 kts 301°
2026-04-30 11:47 18.72502 -66.20282 35992 ft 386 kts 301°
2026-04-30 11:47 18.75804 -66.24747 35989 ft 386 kts 301°
2026-04-30 11:48 18.78573 -66.28491 35990 ft 386 kts 301°
2026-04-30 11:48 18.81867 -66.32963 35988 ft 386 kts 301°
2026-04-30 11:49 18.85158 -66.37441 35988 ft 386 kts 301°
2026-04-30 11:49 18.88458 -66.41918 35993 ft 386 kts 301°
2026-04-30 11:50 18.91751 -66.46397 35994 ft 386 kts 301°
2026-04-30 11:50 18.95100 -66.50843 35993 ft 388 kts 302°
2026-04-30 11:51 18.98608 -66.55184 35998 ft 389 kts 303°
2026-04-30 11:51 19.02128 -66.59526 35996 ft 388 kts 303°
2026-04-30 11:52 19.05591 -66.63856 35995 ft 388 kts 302°
2026-04-30 11:52 19.09089 -66.68257 35999 ft 388 kts 302°
2026-04-30 11:53 19.12558 -66.72631 35997 ft 388 kts 302°
2026-04-30 11:53 19.16036 -66.77010 35997 ft 389 kts 302°
2026-04-30 11:54 19.19513 -66.81385 35997 ft 389 kts 302°
2026-04-30 11:54 19.22988 -66.85764 35997 ft 389 kts 302°
2026-04-30 11:55 19.26444 -66.90119 35993 ft 389 kts 302°
2026-04-30 11:55 19.29924 -66.94499 35993 ft 389 kts 302°
2026-04-30 11:56 19.33396 -66.98885 35991 ft 389 kts 302°
2026-04-30 11:56 19.36862 -67.03277 35993 ft 389 kts 302°
2026-04-30 11:57 19.40334 -67.07669 35992 ft 389 kts 302°
2026-04-30 11:57 19.43808 -67.12065 35991 ft 389 kts 302°
2026-04-30 11:58 19.47283 -67.16464 35995 ft 389 kts 302°
2026-04-30 11:58 19.50749 -67.20863 35996 ft 389 kts 302°
2026-04-30 11:59 19.54219 -67.25261 35998 ft 389 kts 302°
2026-04-30 11:59 19.57691 -67.29666 36000 ft 389 kts 302°
2026-04-30 12:00 19.61158 -67.34071 35998 ft 389 kts 302°
2026-04-30 12:00 19.64622 -67.38485 36003 ft 389 kts 302°
2026-04-30 12:01 19.68085 -67.42888 36001 ft 389 kts 302°
2026-04-30 12:01 19.71557 -67.47300 35999 ft 389 kts 302°
2026-04-30 12:02 19.75021 -67.51710 36001 ft 389 kts 302°
2026-04-30 12:02 19.78489 -67.56124 36007 ft 389 kts 301°
2026-04-30 12:03 19.83682 -67.62751 36008 ft 389 kts 301°
2026-04-30 12:04 19.87136 -67.67176 36008 ft 389 kts 301°
2026-04-30 12:04 19.90594 -67.71595 36012 ft 389 kts 301°
2026-04-30 12:05 19.94041 -67.76012 36011 ft 389 kts 301°
2026-04-30 12:05 19.97498 -67.80437 36012 ft 389 kts 301°
2026-04-30 12:06 20.00953 -67.84853 36007 ft 389 kts 301°
2026-04-30 12:06 20.04406 -67.89272 36012 ft 388 kts 301°
2026-04-30 12:07 20.07830 -67.93672 36009 ft 388 kts 301°
2026-04-30 12:07 20.11267 -67.98099 36006 ft 388 kts 301°
2026-04-30 12:08 20.14709 -68.02526 36015 ft 388 kts 301°
2026-04-30 12:08 20.18149 -68.06956 36010 ft 388 kts 301°
2026-04-30 12:09 20.21619 -68.11415 36012 ft 388 kts 301°
2026-04-30 12:09 20.25058 -68.15840 36014 ft 388 kts 301°
2026-04-30 12:10 20.28496 -68.20280 36013 ft 388 kts 301°
2026-04-30 12:10 20.31937 -68.24713 36014 ft 388 kts 301°
2026-04-30 12:11 20.35356 -68.29125 36013 ft 388 kts 301°
2026-04-30 12:11 20.38788 -68.33569 36014 ft 388 kts 301°
2026-04-30 12:12 20.42223 -68.38015 36013 ft 389 kts 301°
2026-04-30 12:12 20.45335 -68.42648 36014 ft 382 kts 294°
2026-04-30 12:13 20.48154 -68.47445 36012 ft 382 kts 294°
2026-04-30 12:13 20.50979 -68.52250 36010 ft 382 kts 294°
2026-04-30 12:14 20.53805 -68.57054 36009 ft 382 kts 294°
2026-04-30 12:14 20.56629 -68.61864 36010 ft 383 kts 295°
2026-04-30 12:15 20.59460 -68.66682 36009 ft 383 kts 295°
2026-04-30 12:15 20.62289 -68.71501 36011 ft 383 kts 295°
2026-04-30 12:16 20.65118 -68.76326 36009 ft 384 kts 295°
2026-04-30 12:16 20.67948 -68.81156 36009 ft 384 kts 295°
2026-04-30 12:17 20.72191 -68.88412 36011 ft 384 kts 295°
2026-04-30 12:17 20.75027 -68.93260 36010 ft 385 kts 295°
2026-04-30 12:18 20.77862 -68.98109 36009 ft 385 kts 295°
2026-04-30 12:18 20.80694 -69.02966 36010 ft 385 kts 295°
2026-04-30 12:19 20.83525 -69.07829 36013 ft 386 kts 295°
2026-04-30 12:19 20.86360 -69.12704 36009 ft 386 kts 295°
2026-04-30 12:20 20.89195 -69.17579 36020 ft 386 kts 295°
2026-04-30 12:20 20.92034 -69.22459 36016 ft 387 kts 295°
2026-04-30 12:21 20.94868 -69.27349 36012 ft 387 kts 295°
2026-04-30 12:21 20.97712 -69.32242 36016 ft 387 kts 295°
2026-04-30 12:22 21.00558 -69.37147 36017 ft 388 kts 295°
2026-04-30 12:22 21.03402 -69.42056 36011 ft 388 kts 295°
2026-04-30 12:23 21.06256 -69.46975 36011 ft 389 kts 295°
2026-04-30 12:23 21.09102 -69.51900 36011 ft 389 kts 296°
2026-04-30 12:24 21.11948 -69.56836 36012 ft 390 kts 296°
2026-04-30 12:24 21.14801 -69.61775 36012 ft 390 kts 296°
2026-04-30 12:25 21.17663 -69.66727 36010 ft 391 kts 296°
2026-04-30 12:25 21.20518 -69.71682 36014 ft 391 kts 296°
2026-04-30 12:26 21.23373 -69.76646 36015 ft 392 kts 296°
2026-04-30 12:26 21.26236 -69.81629 36014 ft 392 kts 296°
2026-04-30 12:27 21.29098 -69.86608 36013 ft 393 kts 296°
2026-04-30 12:27 21.31964 -69.91601 36014 ft 393 kts 296°
2026-04-30 12:28 21.34341 -69.95754 36015 ft 393 kts 296°
2026-04-30 12:28 21.37209 -70.00764 36019 ft 394 kts 296°
2026-04-30 12:29 21.40082 -70.05773 36014 ft 395 kts 296°
2026-04-30 12:29 21.42977 -70.10826 36015 ft 395 kts 296°
2026-04-30 12:30 21.45854 -70.15855 36016 ft 396 kts 297°
2026-04-30 12:30 21.48736 -70.20890 36016 ft 396 kts 297°
2026-04-30 12:31 21.51617 -70.25942 36016 ft 397 kts 297°
2026-04-30 12:31 21.54489 -70.31003 36021 ft 397 kts 297°
2026-04-30 12:32 21.57350 -70.36041 36019 ft 398 kts 297°
2026-04-30 12:32 21.60236 -70.41113 36023 ft 398 kts 297°
2026-04-30 12:33 21.63147 -70.46226 36017 ft 399 kts 297°
2026-04-30 12:33 21.66039 -70.51314 36017 ft 399 kts 297°
2026-04-30 12:34 21.68934 -70.56416 36022 ft 400 kts 297°
2026-04-30 12:34 21.71827 -70.61519 36024 ft 400 kts 297°
2026-04-30 12:35 21.74722 -70.66630 36026 ft 400 kts 297°
2026-04-30 12:35 21.77599 -70.71720 36027 ft 401 kts 297°
2026-04-30 12:36 21.80500 -70.76848 36022 ft 401 kts 297°
2026-04-30 12:36 21.83395 -70.81981 36024 ft 401 kts 297°
2026-04-30 12:37 21.86288 -70.87118 36022 ft 402 kts 297°
2026-04-30 12:37 21.89188 -70.92256 36028 ft 402 kts 297°
2026-04-30 12:38 21.92085 -70.97400 36029 ft 402 kts 297°
2026-04-30 12:38 21.94984 -71.02550 36034 ft 402 kts 298°
2026-04-30 12:39 21.97875 -71.07695 36031 ft 402 kts 297°
2026-04-30 12:39 22.00770 -71.12851 36033 ft 402 kts 298°
2026-04-30 12:40 22.03661 -71.18012 36038 ft 402 kts 297°
2026-04-30 12:40 22.06545 -71.23171 36040 ft 402 kts 298°
2026-04-30 12:41 22.09437 -71.28328 36036 ft 402 kts 298°
2026-04-30 12:41 22.12320 -71.33488 36039 ft 402 kts 298°
2026-04-30 12:42 22.15208 -71.38651 36045 ft 402 kts 298°
2026-04-30 12:42 22.18090 -71.43810 36036 ft 401 kts 298°
2026-04-30 12:43 22.20971 -71.48971 36040 ft 401 kts 298°
2026-04-30 12:43 22.23848 -71.54132 36040 ft 401 kts 298°
2026-04-30 12:44 22.26721 -71.59296 36040 ft 401 kts 297°
2026-04-30 12:44 22.29597 -71.64465 36041 ft 401 kts 298°
2026-04-30 12:45 22.32474 -71.69627 36040 ft 401 kts 298°
2026-04-30 12:45 22.35346 -71.74795 36039 ft 401 kts 297°
2026-04-30 12:46 22.38212 -71.79970 36036 ft 401 kts 297°
2026-04-30 12:46 22.41070 -71.85149 36036 ft 401 kts 297°
2026-04-30 12:47 22.43937 -71.90335 36037 ft 402 kts 297°
2026-04-30 12:47 22.46802 -71.95519 36034 ft 402 kts 297°
2026-04-30 12:48 22.49667 -72.00707 36032 ft 402 kts 297°
2026-04-30 12:48 22.52538 -72.05903 36032 ft 402 kts 298°
2026-04-30 12:49 22.55408 -72.11100 36030 ft 403 kts 297°
2026-04-30 12:49 22.58274 -72.16306 36029 ft 403 kts 297°
2026-04-30 12:50 22.61133 -72.21521 36029 ft 403 kts 297°
2026-04-30 12:50 22.63998 -72.26742 36030 ft 404 kts 297°
2026-04-30 12:51 22.66869 -72.31966 36028 ft 404 kts 297°
2026-04-30 12:51 22.69736 -72.37202 36027 ft 404 kts 297°
2026-04-30 12:52 22.72604 -72.42445 36027 ft 405 kts 297°
2026-04-30 12:52 22.75480 -72.47701 36027 ft 405 kts 298°
2026-04-30 12:53 22.78358 -72.52957 36025 ft 406 kts 298°
2026-04-30 12:53 22.81240 -72.58229 36027 ft 406 kts 298°
2026-04-30 12:54 22.84100 -72.63469 36024 ft 407 kts 298°
2026-04-30 12:54 22.86980 -72.68754 36025 ft 407 kts 298°
2026-04-30 12:55 22.89860 -72.74049 36026 ft 408 kts 298°
2026-04-30 12:55 22.92747 -72.79351 36027 ft 408 kts 298°
2026-04-30 12:56 22.95632 -72.84662 36024 ft 409 kts 298°
2026-04-30 12:56 22.98691 -72.89871 36022 ft 412 kts 307°
2026-04-30 12:57 23.02625 -72.94431 36024 ft 414 kts 310°
2026-04-30 12:57 23.06597 -72.98980 36021 ft 415 kts 310°
2026-04-30 12:58 23.10562 -73.03542 36021 ft 416 kts 310°
2026-04-30 12:58 23.14531 -73.08110 36023 ft 416 kts 310°
2026-04-30 12:59 23.18513 -73.12679 36023 ft 417 kts 310°
2026-04-30 12:59 23.22496 -73.17265 36021 ft 417 kts 310°
2026-04-30 13:00 23.26474 -73.21859 36023 ft 417 kts 311°
2026-04-30 13:00 23.30456 -73.26459 36024 ft 418 kts 311°
2026-04-30 13:01 23.34447 -73.31061 36023 ft 418 kts 311°
2026-04-30 13:01 23.38446 -73.35671 36023 ft 419 kts 311°
2026-04-30 13:02 23.42432 -73.40283 36020 ft 419 kts 311°
2026-04-30 13:02 23.46423 -73.44915 36022 ft 419 kts 311°
2026-04-30 13:03 23.50415 -73.49545 36025 ft 419 kts 311°
2026-04-30 13:03 23.54391 -73.54150 36030 ft 420 kts 311°
2026-04-30 13:04 23.58388 -73.58789 36027 ft 420 kts 311°
2026-04-30 13:04 23.62387 -73.63434 36022 ft 420 kts 311°
2026-04-30 13:05 23.66386 -73.68086 36022 ft 421 kts 311°
2026-04-30 13:06 23.72384 -73.75088 36022 ft 421 kts 311°
2026-04-30 13:06 23.76385 -73.79768 36023 ft 421 kts 311°
2026-04-30 13:07 23.80389 -73.84445 36021 ft 422 kts 312°
2026-04-30 13:07 23.84405 -73.89117 36020 ft 422 kts 312°
2026-04-30 13:08 23.88413 -73.93803 36019 ft 422 kts 312°
2026-04-30 13:08 23.92419 -73.98496 36020 ft 422 kts 312°
2026-04-30 13:09 23.96426 -74.03195 36019 ft 423 kts 312°
2026-04-30 13:09 24.00438 -74.07902 36016 ft 423 kts 313°
2026-04-30 13:10 24.04446 -74.12613 36018 ft 423 kts 313°
2026-04-30 13:10 24.07774 -74.16531 36016 ft 423 kts 313°
2026-04-30 13:11 24.11787 -74.21248 36022 ft 424 kts 313°
2026-04-30 13:11 24.15800 -74.25971 36022 ft 424 kts 313°
2026-04-30 13:12 24.19818 -74.30704 36021 ft 424 kts 313°
2026-04-30 13:12 24.23826 -74.35438 36021 ft 424 kts 313°
2026-04-30 13:13 24.29850 -74.42551 36021 ft 424 kts 314°
2026-04-30 13:14 24.35894 -74.49700 36021 ft 424 kts 314°
2026-04-30 13:14 24.41360 -74.57243 36018 ft 426 kts 297°
2026-04-30 13:15 24.43897 -74.66622 36012 ft 429 kts 285°
2026-04-30 13:16 24.45308 -74.72995 36012 ft 429 kts 285°
2026-04-30 13:16 24.46722 -74.79371 36011 ft 430 kts 286°
2026-04-30 13:17 24.48815 -74.88936 36017 ft 430 kts 286°
2026-04-30 13:18 24.50915 -74.98502 36016 ft 430 kts 286°
2026-04-30 13:18 24.53006 -75.08068 36019 ft 429 kts 286°
2026-04-30 13:19 24.54398 -75.14448 36021 ft 429 kts 286°
2026-04-30 13:19 24.55791 -75.20863 36021 ft 429 kts 286°
2026-04-30 13:20 24.57164 -75.27201 36021 ft 429 kts 286°
2026-04-30 13:20 24.58547 -75.33576 36021 ft 429 kts 286°
2026-04-30 13:21 24.59925 -75.39952 36020 ft 429 kts 286°
2026-04-30 13:22 24.61990 -75.49520 36022 ft 429 kts 286°
2026-04-30 13:22 24.64042 -75.59085 36019 ft 429 kts 286°
2026-04-30 13:23 24.66087 -75.68655 36017 ft 429 kts 286°
2026-04-30 13:24 24.68811 -75.81419 36018 ft 428 kts 286°
2026-04-30 13:25 24.71526 -75.94178 36017 ft 428 kts 286°
2026-04-30 13:26 24.74887 -76.10130 36017 ft 428 kts 286°
2026-04-30 13:28 24.78245 -76.26078 36016 ft 428 kts 286°
2026-04-30 13:28 24.80240 -76.35653 36012 ft 428 kts 286°
2026-04-30 13:29 24.82889 -76.48413 36013 ft 427 kts 286°
2026-04-30 13:31 24.86201 -76.64354 36009 ft 427 kts 286°
2026-04-30 13:32 24.89489 -76.80304 36005 ft 427 kts 285°
2026-04-30 13:33 24.92098 -76.93076 36002 ft 427 kts 285°
2026-04-30 13:34 24.94053 -77.02649 36003 ft 427 kts 285°
2026-04-30 13:35 24.96652 -77.15416 36007 ft 427 kts 285°
2026-04-30 13:36 24.99237 -77.28186 36022 ft 426 kts 285°
2026-04-30 13:36 25.01165 -77.37756 36033 ft 426 kts 284°
2026-04-30 13:37 25.02325 -77.47458 36032 ft 431 kts 267°
2026-04-30 13:38 25.01459 -77.57321 36028 ft 431 kts 267°
2026-04-30 13:39 25.00344 -77.70459 36024 ft 430 kts 267°
2026-04-30 13:40 24.99504 -77.80259 36010 ft 430 kts 267°
2026-04-30 13:40 24.98928 -77.86811 36008 ft 429 kts 266°
2026-04-30 13:41 24.98342 -77.93355 36010 ft 429 kts 266°
2026-04-30 13:41 24.97761 -77.99892 36007 ft 428 kts 266°
2026-04-30 13:42 24.97198 -78.06432 36005 ft 428 kts 268°
2026-04-30 13:42 24.96856 -78.16234 36002 ft 426 kts 271°
2026-04-30 13:43 24.96801 -78.19515 35894 ft 430 kts 271°
2026-04-30 13:43 24.96733 -78.22806 35645 ft 429 kts 270°
2026-04-30 13:43 24.96649 -78.26094 35240 ft 428 kts 270°
2026-04-30 13:43 24.96549 -78.29357 34863 ft 426 kts 270°
2026-04-30 13:44 24.96439 -78.32614 34491 ft 424 kts 270°
2026-04-30 13:44 24.96327 -78.35851 34123 ft 422 kts 270°
2026-04-30 13:44 24.96215 -78.39065 33722 ft 419 kts 270°
2026-04-30 13:44 24.96106 -78.42274 33303 ft 417 kts 270°
2026-04-30 13:45 24.95890 -78.48632 32488 ft 413 kts 270°
2026-04-30 13:45 24.95782 -78.51790 32090 ft 411 kts 270°
2026-04-30 13:45 24.95674 -78.54932 31699 ft 410 kts 270°
2026-04-30 13:46 24.95567 -78.58063 31301 ft 408 kts 270°
2026-04-30 13:46 24.95461 -78.61184 30894 ft 407 kts 269°
2026-04-30 13:46 24.95540 -78.64283 30494 ft 403 kts 279°
2026-04-30 13:46 24.95987 -78.67324 30103 ft 402 kts 281°
2026-04-30 13:47 24.96448 -78.70359 29646 ft 400 kts 281°
2026-04-30 13:47 24.96899 -78.73374 29194 ft 397 kts 281°
2026-04-30 13:47 24.97342 -78.76364 28749 ft 395 kts 281°
2026-04-30 13:47 24.97781 -78.79343 28306 ft 392 kts 281°
2026-04-30 13:48 24.98218 -78.82290 27874 ft 389 kts 281°
2026-04-30 13:48 24.98650 -78.85223 27447 ft 387 kts 281°
2026-04-30 13:48 24.99079 -78.88138 27023 ft 384 kts 281°
2026-04-30 13:48 24.99504 -78.91040 26614 ft 382 kts 281°
2026-04-30 13:49 24.99927 -78.93916 26207 ft 379 kts 281°
2026-04-30 13:49 25.00347 -78.96770 25804 ft 376 kts 281°
2026-04-30 13:49 25.00767 -78.99602 25403 ft 373 kts 281°
2026-04-30 13:49 25.01185 -79.02432 24850 ft 375 kts 281°
2026-04-30 13:50 25.01601 -79.05273 24366 ft 375 kts 281°
2026-04-30 13:50 25.02587 -79.10900 23334 ft 373 kts 291°
2026-04-30 13:50 25.03257 -79.12633 22987 ft 370 kts 299°
2026-04-30 13:51 25.04618 -79.15024 22508 ft 367 kts 304°
2026-04-30 13:51 25.06031 -79.17358 22028 ft 365 kts 304°
2026-04-30 13:51 25.07428 -79.19684 21561 ft 363 kts 304°
2026-04-30 13:51 25.08813 -79.21999 21094 ft 361 kts 304°
2026-04-30 13:52 25.10189 -79.24302 20635 ft 358 kts 304°
2026-04-30 13:52 25.11554 -79.26586 20192 ft 356 kts 304°
2026-04-30 13:52 25.12914 -79.28856 19780 ft 352 kts 303°
2026-04-30 13:52 25.14265 -79.31112 19333 ft 351 kts 303°
2026-04-30 13:53 25.15603 -79.33355 18860 ft 350 kts 303°
2026-04-30 13:53 25.16947 -79.35606 18351 ft 351 kts 303°
2026-04-30 13:53 25.18292 -79.37862 17774 ft 351 kts 303°
2026-04-30 13:53 25.19631 -79.40109 17286 ft 350 kts 303°
2026-04-30 13:54 25.20957 -79.42336 16867 ft 346 kts 303°
2026-04-30 13:54 25.22277 -79.44544 16471 ft 342 kts 303°
2026-04-30 13:54 25.23574 -79.46709 16082 ft 336 kts 303°
2026-04-30 13:54 25.24846 -79.48838 15720 ft 327 kts 303°
2026-04-30 13:55 25.26084 -79.50917 15360 ft 319 kts 303°
2026-04-30 13:55 25.27289 -79.52943 15007 ft 312 kts 303°
2026-04-30 13:55 25.28471 -79.54928 14634 ft 306 kts 303°
2026-04-30 13:55 25.29633 -79.56878 14233 ft 302 kts 303°
2026-04-30 13:56 25.30781 -79.58807 13824 ft 299 kts 303°
2026-04-30 13:56 25.31915 -79.60721 13377 ft 295 kts 303°
2026-04-30 13:56 25.33033 -79.62608 12970 ft 294 kts 303°
2026-04-30 13:56 25.34150 -79.64495 12603 ft 293 kts 303°
2026-04-30 13:57 25.35262 -79.66374 12280 ft 290 kts 303°
2026-04-30 13:57 25.36365 -79.68234 11937 ft 289 kts 303°
2026-04-30 13:57 25.37468 -79.70092 11557 ft 289 kts 303°
2026-04-30 13:57 25.38622 -79.71914 11174 ft 289 kts 310°
2026-04-30 13:58 25.40102 -79.73414 10794 ft 289 kts 323°
2026-04-30 13:58 25.43398 -79.75968 10039 ft 290 kts 324°
2026-04-30 13:58 25.45041 -79.77249 9774 ft 288 kts 324°
2026-04-30 13:59 25.46672 -79.78526 9548 ft 287 kts 324°
2026-04-30 13:59 25.48300 -79.79802 9326 ft 286 kts 324°
2026-04-30 13:59 25.49925 -79.81076 9103 ft 286 kts 324°
2026-04-30 13:59 25.51545 -79.82346 8881 ft 285 kts 324°
2026-04-30 14:00 25.53163 -79.83614 8655 ft 284 kts 324°
2026-04-30 14:00 25.56388 -79.86131 8215 ft 283 kts 326°
2026-04-30 14:00 25.58176 -79.87037 7996 ft 283 kts 343°
2026-04-30 14:01 25.60107 -79.87363 7784 ft 278 kts 358°
2026-04-30 14:01 25.61949 -79.87394 7561 ft 273 kts 358°
2026-04-30 14:01 25.63845 -79.87432 7327 ft 272 kts 358°
2026-04-30 14:01 25.65739 -79.87475 7123 ft 272 kts 358°
2026-04-30 14:02 25.67626 -79.87516 6901 ft 271 kts 358°
2026-04-30 14:02 25.69495 -79.87554 6715 ft 265 kts 358°
2026-04-30 14:02 25.71314 -79.87591 6537 ft 258 kts 358°
2026-04-30 14:02 25.73087 -79.87629 6424 ft 259 kts 357°
2026-04-30 14:03 25.74892 -79.87669 6188 ft 259 kts 358°
2026-04-30 14:03 25.76653 -79.87778 6001 ft 249 kts 347°
2026-04-30 14:03 25.78204 -79.88527 5694 ft 242 kts 321°
2026-04-30 14:03 25.79298 -79.89913 5329 ft 239 kts 296°
2026-04-30 14:04 25.79760 -79.91689 4956 ft 237 kts 273°
2026-04-30 14:04 25.79874 -79.93480 4774 ft 230 kts 272°
2026-04-30 14:04 25.79989 -79.95240 4493 ft 228 kts 272°
2026-04-30 14:04 25.80103 -79.97003 4065 ft 233 kts 272°
2026-04-30 14:05 25.80218 -79.98788 3791 ft 228 kts 272°
2026-04-30 14:05 25.80329 -80.00499 3662 ft 218 kts 272°
2026-04-30 14:05 25.80433 -80.02154 3556 ft 211 kts 272°
2026-04-30 14:05 25.80533 -80.03741 3466 ft 202 kts 272°
2026-04-30 14:06 25.80632 -80.05279 3425 ft 198 kts 272°
2026-04-30 14:06 25.80849 -80.08320 3178 ft 197 kts 272°
2026-04-30 14:07 25.80829 -80.11311 2724 ft 190 kts 266°
2026-04-30 14:07 25.80775 -80.12772 2481 ft 188 kts 266°
2026-04-30 14:07 25.80718 -80.14218 2236 ft 187 kts 266°
2026-04-30 14:08 25.80604 -80.17061 1751 ft 181 kts 266°
2026-04-30 14:08 25.80549 -80.18427 1521 ft 172 kts 266°
2026-04-30 14:08 25.80453 -80.20821 1117 ft 140 kts 265°
2026-04-30 14:09 25.80408 -80.21879 941 ft 136 kts 265°
2026-04-30 14:09 25.80347 -80.22915 814 ft 135 kts 264°
2026-04-30 14:09 25.80276 -80.24990 409 ft 135 kts 267°
2026-04-30 14:10 25.80243 -80.26022 217 ft 135 kts 266°
2026-04-30 14:10 25.80198 -80.27056 67 ft 133 kts 265°
2026-04-30 14:10 25.80157 -80.28011 15 ft 112 kts 268°
2026-04-30 14:10 25.80131 -80.28694 17 ft 64 kts 268°
2026-04-30 14:11 25.80107 -80.28979 20 ft 23 kts 252°
2026-04-30 14:11 25.80043 -80.29085 17 ft 14 kts 214°
2026-04-30 14:11 25.79963 -80.29102 16 ft 12 kts 176°
2026-04-30 14:11 25.79924 -80.29034 15 ft 12 kts 81°
2026-04-30 14:12 25.79929 -80.28938 15 ft 13 kts 87°
2026-04-30 14:12 25.79932 -80.28837 15 ft 13 kts 88°
2026-04-30 14:12 25.79937 -80.28731 15 ft 14 kts 86°
2026-04-30 14:12 25.79940 -80.28659 15 ft 14 kts 87°
2026-04-30 14:13 25.79946 -80.28515 15 ft 14 kts 89°
2026-04-30 14:13 25.79929 -80.28440 17 ft 9 kts 148°
2026-04-30 14:13 25.79884 -80.28393 15 ft 9 kts 105°
2026-04-30 14:13 25.79888 -80.28317 15 ft 10 kts 86°
2026-04-30 14:14 25.79891 -80.28242 15 ft 7 kts 88°
2026-04-30 14:14 25.79891 -80.28218 15 ft 3 kts 88°
2026-04-30 14:14 25.79892 -80.28190 15 ft 4 kts 88°
2026-04-30 14:14 25.79877 -80.28173 15 ft 3 kts 170°
2026-04-30 14:15 25.79851 -80.28172 15 ft 4 kts 178°
2026-04-30 14:15 25.79831 -80.28171 15 ft 0 kts 177°